This is the latest recevied weather packets stored in our database for station/object MDJB. If no packets are shown the sender has not sent any weather packets the latest 10 day(s).
| Time | Temp. | Humidity | Pressure | Rain* | Wind** | Luminosity | Snow |
|---|---|---|---|---|---|---|---|
| 1787758966 | 32.22° C | 66% | 1016 hPa | 0 mm | - | - | - |
| 1787758365 | 32.22° C | 66% | 1016 hPa | 0 mm | - | - | - |
| 1787757765 | 32.22° C | 66% | 1016 hPa | 0 mm | - | - | - |
| 1787757164 | 32.22° C | 67% | 1015 hPa | 0 mm | - | - | - |
| 1787756563 | 31.67° C | 68% | 1015 hPa | 0 mm | - | - | - |
| 1787755963 | 31.11° C | 69% | 1016 hPa | 0 mm | - | - | - |
| 1787755362 | 31.11° C | 70% | 1016 hPa | 0 mm | - | - | - |
| 1787754762 | 31.11° C | 70% | 1016 hPa | 0 mm | - | - | - |
| 1787754160 | 30.56° C | 71% | 1016 hPa | 0 mm | - | - | - |
| 1787753563 | 30.56° C | 71% | 1015 hPa | 0 mm | - | - | - |
| 1787752959 | 30° C | 71% | 1016 hPa | 0 mm | - | - | - |
| 1787752358 | 30° C | 71% | 1016 hPa | 0 mm | - | - | - |
| 1787751758 | 30° C | 74% | 1016 hPa | 0 mm | - | - | - |
| 1787751157 | 29.44° C | 74% | 1016 hPa | 0 mm | - | - | - |
| 1787750556 | 29.44° C | 75% | 1016 hPa | 0 mm | - | - | - |
| 1787749955 | 29.44° C | 76% | 1015 hPa | 0 mm | - | - | - |
| 1787749354 | 29.44° C | 76% | 1015 hPa | 0 mm | - | - | - |
| 1787748753 | 29.44° C | 75% | 1016 hPa | 0 mm | - | - | - |
| 1787748153 | 28.89° C | 77% | 1016 hPa | 0 mm | - | - | - |
| 1787747552 | 28.33° C | 79% | 1015 hPa | 0 mm | - | - | - |
| 1787746951 | 28.33° C | 79% | 1015 hPa | 0 mm | - | - | - |
| 1787746350 | 28.33° C | 75% | 1015 hPa | 0 mm | - | - | - |
| 1787745750 | 28.33° C | 77% | 1015 hPa | 0 mm | - | - | - |
| 1787745149 | 27.22° C | 80% | 1016 hPa | 0 mm | - | - | - |
| 1787744548 | 25.56° C | 86% | 1016 hPa | 0 mm | - | - | - |
* Rain latest hour (hover to see other rain measurements)
** Current wind speed in m/s (hover to see current wind gust speed)